Regional Weather Roundup
Issued by NWS

Home | Current Version | Previous Version | Graphics & Text | Print | Product List | Glossary On
Versions: 1 2 3 4 5 6 7 8 9 10 11 12 13 14 15 16 17 18 19 20 21 22 23 24 25 26 27 28 29 30 31 32 33 34 35 36 37 38 39 40 41 42 43 44 45 46 47 48 49 50
000
ASUS45 KTFX 222310
RWRMT
MONTANA REGIONAL WEATHER ROUNDUP
NATIONAL WEATHER SERVICE GREAT FALLS MT
400 PM MST WED FEB 22 2017

NOTE: "FAIR" INDICATES FEW OR NO CLOUDS BELOW 12000 FEET WITH NO
SIGNIFICANT WEATHER AND/OR OBSTRUCTIONS TO VISIBILITY.

MTZ001>007-043-230000-
WEST OF THE DIVIDE

CITY           SKY/WX    TMP DP  RH WIND       PRES   REMARKS
KALISPELL      PTSUNNY   39  26  59 NE3       29.93S
MISSOULA       CLOUDY    36  24  62 NW9       29.93S WCI  29
BUTTE          CLOUDY    29  22  75 S3        29.84S
MULLAN PASS    CLOUDY    24  23  96 VRB5      29.86R FOG
ANACONDA         N/A     30  25  80 N6        29.86S WCI  24
DEER LODGE       N/A     34  27  75 SW3       29.89S
EUREKA           N/A     34  28  80 E5        29.96S
HAMILTON         N/A     37  27  65 NW12      29.90S WCI  30
PLAINS           N/A     36  26  67 E5        29.97
$$

MTZ008-052>055-230000-
SOUTHWEST MONTANA

CITY           SKY/WX    TMP DP  RH WIND       PRES   REMARKS
BOZEMAN        CLOUDY    36  26  67 SW8       29.86F WCI  30
DILLON         CLOUDY    37  23  56 NE14      29.81S WCI  28
W YELLOWSTONE  MOSUNNY   28  16  59 S10       29.81F WCI  19
ENNIS          CLOUDY    30  25  80 N5G12     29.88S HAZE
$$

MTZ009-010-012-014-046-048-049-054-230000-
EAST SLOPES AND CENTRAL MONTANA

CITY           SKY/WX    TMP DP  RH WIND       PRES   REMARKS
CUT BANK       PTSUNNY   30  26  85 N12       29.92R WCI  20
GREAT FALLS    CLOUDY    36  25  64 N10       29.90R WCI  28
MALMSTROM AFB  CLOUDY    36  28  71 N12       29.91S WCI  28
HELENA         MOSUNNY   40  25  55 W8        29.86F
AUGUSTA        PTSUNNY   33  26  75 NE15      29.88R WCI  23
BOWMANS CRNR   FLURRIES  32  25  76 N14       29.86S WCI  22
CHOTEAU          N/A     32  27  80 N12       29.93R WCI  23
CONRAD           N/A     32  29  89 NW9       29.95S WCI  24
POWER            N/A     34  27  75 N14       29.89S WCI  25
RAYNESFORD     FLURRIES  31  29  90 SW3       29.90R
ULM            PTSUNNY   36  25  63 MISG      29.91R
$$

MTZ011-013-016-021-045-047-050-051-230000-
NORTH CENTRAL MONTANA

CITY           SKY/WX    TMP DP  RH WIND       PRES   REMARKS
HAVRE          CLOUDY    36  28  73 E13       29.94R WCI  27
LEWISTOWN      FLURRIES  33  29  85 N7        29.88R WCI  27
N BAR RANCH    LGT SNOW  30  28  93 E6        29.89R WCI  24
CHINOOK          N/A     36  27  69 E6        29.96S WCI  31
DENTON         PTSUNNY   36  30  79 N5G21     29.87R
FORT BENTON      N/A     37  28  70 MISG      29.93S
GEYSER         FLURRIES  33  28  83 W13       29.88R WCI  23
GRASS RANGE    LGT SNOW  31  31  99 NE3       29.86R VSB 5/8
JUDITH GAP     LGT SNOW  28  26  94 N14       29.86R FOG     WCI  17
ROY            FLURRIES  30  29  95 MISG      29.89R
STANFORD       LGT SNOW  30  29  96 N5        29.88R VSB 3/4
WINIFRED       FLURRIES  31  31 100 E6        29.89R WCI  26
$$

MTZ017>020-022>027-061-062-230000-
NORTHEAST MONTANA

CITY           SKY/WX    TMP DP  RH WIND       PRES   REMARKS
GLASGOW        PTSUNNY   32  28  85 SW3       29.96R
JORDAN           N/A     31  29  92 NE8       29.93R WCI  23
SIDNEY         CLOUDY    31  26  82 NE7       29.96R WCI  24
WOLF POINT     CLOUDY    34  26  72 E6        29.97S WCI  29
PLENTYWOOD       N/A     34  25  69 NW3       29.95R
POPLAR           N/A     32  25  74 N5        29.98R
$$

MTZ028>42-056>058-230000-
SOUTHCENTRAL AND SOUTHEAST MONTANA

CITY           SKY/WX    TMP DP  RH WIND       PRES   REMARKS
BAKER          CLOUDY    31  28  89 NW9       29.90R WCI  23
BILLINGS       PTSUNNY   33  32  96 NE9       29.87S WCI  25
LIVINGSTON     CLOUDY    37  20  50 NW10      29.84S WCI  30
MILES CITY     CLOUDY    35  32  88 N9        29.92R WCI  28
BIG TIMBER     PTSUNNY   39  21  48 N9        29.86R
EKALAKA          N/A     30  27  89 NW5       29.86
FORSYTH          N/A     36  30  80 N7        29.92R WCI  30
HARLOWTON      LGT SNOW  31  29  94 N21       29.85R WCI  18
LAUREL           N/A     36  27  70 NE13      29.87  WCI  27
$$

REGIONAL REPORTS...DAKOTAS

CITY           SKY/WX    TMP DP  RH WIND       PRES   REMARKS
WILLISTON      CLOUDY    34  23  64 N6        29.95R WCI  29
MINOT          SUNNY     34  24  67 NW12      29.92R WCI  25
DICKINSON      CLOUDY    29  25  85 N8        29.88R WCI  21
BEACH            N/A    N/A N/A N/A MISG        N/A
CROSBY         PTSUNNY   32  28  86 NW10      29.97R WCI  24
TIOGA          CLOUDY    32  28  86 N13       29.95R WCI  22
WATFORD CITY     N/A     30  25  80 N6        29.94S WCI  24
BISMARCK       CLOUDY    34  31  88 NE9       29.90R WCI  27
GRAND FORKS    MOCLDY    35  24  64 N15       29.84R WCI  25
FARGO          CLOUDY    35  31  85 N18       29.80R WCI  24
BUFFALO SD       N/A     34  30  85 N13       29.81R WCI  25
RAPID CITY     SUNNY     44  30  57 N33G41    29.79R
$$

REGIONAL REPORTS...WYOMING/IDAHO/WASHINGTON

CITY           SKY/WX    TMP DP  RH WIND       PRES   REMARKS
GILLETTE         N/A    N/A N/A N/A MISG      29.82S
SHERIDAN       FLURRIES  37  29  72 VRB5      29.85R
BUFFALO WY     CLOUDY    34  30  85 CALM      29.85S
CODY           LGT RAIN  34  28  79 NE12      29.83R WCI  25
YELLOWSTONE LA   N/A     27  12  53 VRB6      29.80F WCI  20
IDAHO FALLS    MOSUNNY   36  24  62 CALM      29.85F
SALMON         CLOUDY    39  23  52 N9        29.82F
BOISE          CLOUDY    39  29  67 W5        29.89F
SPOKANE        MOSUNNY   34  28  79 S5        30.02R
$$

REGIONAL REPORTS...ALBERTA

CITY           SKY/WX    TMP DP  RH WIND       PRES   REMARKS
EDMONTON       PTSUNNY   28  16  59 W8G17     30.02S WCI  20
CALGARY        PTSUNNY   28  19  69 NE10      29.97R WCI  19
LETHBRIDGE     FLURRIES  30  28  93 N12G17    29.97R WCI  21
MEDICINE HAT   SNOW      32  30  93 N15       29.96R VSB 1/2 WCI  22
WATERTON GATE    N/A     30  21  69 E5          N/A
CARDSTON         N/A     30  27  86 NE6         N/A  WCI  24
MILK RIVER       N/A     30  28  93 N10         N/A  WCI  21
$$

REGIONAL REPORTS...SASKATCHEWAN

CITY           SKY/WX    TMP DP  RH WIND       PRES   REMARKS
SWIFT CURRENT  LGT SNOW  32  30  93 N14       29.93R WCI  22
REGINA         FLURRIES  34  28  80 NW8       29.93R WCI  27
SASKATOON      FLURRIES  25  21  86 N8        30.01R WCI  16
CYPRESS HILLS    N/A     28  21  74 S7          N/A  WCI  21
VAL MARIE        N/A     36  21  55 E5          N/A
ROCKGLEN         N/A     32  21  64 N5          N/A
ASSINIBOIA       N/A     28  18  64 NW15        N/A  WCI  17
$$



USA.gov is the U.S. government's official web portal to all federal, state and local government web resources and services.